Time,TemperatureF,DewpointF,PressureIn,WindDirection,WindDirectionDegrees,WindSpeedMPH,WindSpeedGustMPH,Humidity,HourlyPrecipIn,Conditions,Clouds,dailyrainin,SoftwareType,DateUTC
2013-02-19 00:00:00,24.0,3.2,30.17,WSW,248,0.0,6.0,40,0.00,,,0.00,Weather View 32 v70,2013-02-19 05:00:00,
2013-02-19 00:01:00,24.0,4.7,30.17,WSW,248,0.0,6.0,43,0.00,,,0.00,Weather View 32 v70,2013-02-19 05:01:00,
2013-02-19 00:06:00,24.0,2.1,30.17,WSW,248,0.0,6.0,38,0.00,,,0.00,Weather View 32 v70,2013-02-19 05:06:00,
2013-02-19 00:11:00,24.0,2.1,30.17,WSW,248,0.0,6.0,38,0.00,,,0.00,Weather View 32 v70,2013-02-19 05:11:00,
2013-02-19 00:16:00,25.0,4.1,30.17,West,270,0.0,7.0,40,0.00,,,0.00,Weather View 32 v70,2013-02-19 05:16:00,
2013-02-19 00:21:00,25.0,3.5,30.17,WSW,248,0.0,7.0,39,0.00,,,0.00,Weather View 32 v70,2013-02-19 05:21:00,
2013-02-19 00:26:00,24.0,2.6,30.17,SSW,202,0.0,7.0,39,0.00,,,0.00,Weather View 32 v70,2013-02-19 05:26:00,
2013-02-19 00:31:00,24.0,3.2,30.17,WSW,248,0.0,7.0,40,0.00,,,0.00,Weather View 32 v70,2013-02-19 05:31:00,
2013-02-19 00:36:00,24.0,2.6,30.17,WSW,248,0.0,7.0,39,0.00,,,0.00,Weather View 32 v70,2013-02-19 05:36:00,
2013-02-19 00:41:00,25.0,4.1,30.17,WNW,292,0.0,7.0,40,0.00,,,0.00,Weather View 32 v70,2013-02-19 05:41:00,
2013-02-19 00:46:00,25.0,4.1,30.17,West,270,0.0,7.0,40,0.00,,,0.00,Weather View 32 v70,2013-02-19 05:46:00,
2013-02-19 00:51:00,25.0,4.1,30.16,WSW,248,0.0,7.0,40,0.00,,,0.00,Weather View 32 v70,2013-02-19 05:51:00,
2013-02-19 00:56:00,25.0,4.1,30.16,SW,225,0.0,7.0,40,0.00,,,0.00,Weather View 32 v70,2013-02-19 05:56:00,
2013-02-19 01:02:00,25.0,4.1,30.17,WSW,248,0.0,7.0,40,0.00,,,0.00,Weather View 32 v70,2013-02-19 06:02:00,
2013-02-19 01:07:00,25.0,4.6,30.17,SW,225,0.0,7.0,41,0.00,,,0.00,Weather View 32 v70,2013-02-19 06:07:00,
2013-02-19 01:12:00,25.0,4.6,30.17,SW,225,0.0,7.0,41,0.00,,,0.00,Weather View 32 v70,2013-02-19 06:12:00,
2013-02-19 01:17:00,25.0,4.6,30.18,WSW,248,0.0,5.0,41,0.00,,,0.00,Weather View 32 v70,2013-02-19 06:17:00,
2013-02-19 01:22:00,25.0,4.6,30.18,SW,225,0.0,5.0,41,0.00,,,0.00,Weather View 32 v70,2013-02-19 06:22:00,
2013-02-19 01:27:00,25.0,6.2,30.17,SW,225,0.0,5.0,44,0.00,,,0.00,Weather View 32 v70,2013-02-19 06:27:00,
2013-02-19 01:32:00,25.0,8.1,30.17,WSW,248,0.0,5.0,48,0.00,,,0.00,Weather View 32 v70,2013-02-19 06:32:00,
2013-02-19 01:37:00,25.0,8.1,30.17,SW,225,0.0,5.0,48,0.00,,,0.00,Weather View 32 v70,2013-02-19 06:37:00,
2013-02-19 01:42:00,26.0,8.5,30.17,SW,225,0.0,5.0,47,0.00,,,0.00,Weather View 32 v70,2013-02-19 06:42:00,
2013-02-19 01:47:00,26.0,8.5,30.17,SW,225,0.0,5.0,47,0.00,,,0.00,Weather View 32 v70,2013-02-19 06:47:00,
2013-02-19 01:52:00,26.0,8.5,30.17,WSW,248,0.0,5.0,47,0.00,,,0.00,Weather View 32 v70,2013-02-19 06:52:00,
2013-02-19 01:57:00,26.0,8.5,30.17,SW,225,0.0,5.0,47,0.00,,,0.00,Weather View 32 v70,2013-02-19 06:57:00,
2013-02-19 02:02:00,26.0,8.0,30.17,West,270,2.0,5.0,46,0.00,,,0.00,Weather View 32 v70,2013-02-19 07:02:00,
2013-02-19 02:07:00,26.0,8.5,30.17,SW,225,0.0,5.0,47,0.00,,,0.00,Weather View 32 v70,2013-02-19 07:07:00,
2013-02-19 02:12:00,26.0,8.0,30.17,SW,225,0.0,5.0,46,0.00,,,0.00,Weather View 32 v70,2013-02-19 07:12:00,
2013-02-19 02:17:00,26.0,8.0,30.17,WSW,248,0.0,5.0,46,0.00,,,0.00,Weather View 32 v70,2013-02-19 07:17:00,
2013-02-19 02:22:00,26.0,8.0,30.17,SSW,202,0.0,5.0,46,0.00,,,0.00,Weather View 32 v70,2013-02-19 07:22:00,
2013-02-19 02:27:00,26.0,8.5,30.17,SW,225,0.0,5.0,47,0.00,,,0.00,Weather View 32 v70,2013-02-19 07:27:00,
2013-02-19 02:32:00,26.0,8.5,30.17,SW,225,0.0,3.0,47,0.00,,,0.00,Weather View 32 v70,2013-02-19 07:32:00,
2013-02-19 02:37:00,26.0,7.6,30.16,SSW,202,0.0,3.0,45,0.00,,,0.00,Weather View 32 v70,2013-02-19 07:37:00,
2013-02-19 02:42:00,25.0,5.6,30.16,SW,225,0.0,3.0,43,0.00,,,0.00,Weather View 32 v70,2013-02-19 07:42:00,
2013-02-19 02:47:00,25.0,7.6,30.16,SW,225,0.0,3.0,47,0.00,,,0.00,Weather View 32 v70,2013-02-19 07:47:00,
2013-02-19 02:52:00,25.0,8.1,30.16,SW,225,0.0,3.0,48,0.00,,,0.00,Weather View 32 v70,2013-02-19 07:52:00,
2013-02-19 02:57:00,25.0,7.6,30.15,WNW,292,0.0,3.0,47,0.00,,,0.00,Weather View 32 v70,2013-02-19 07:57:00,
2013-02-19 03:02:00,25.0,8.1,30.16,SSW,202,0.0,3.0,48,0.00,,,0.00,Weather View 32 v70,2013-02-19 08:02:00,
2013-02-19 03:07:00,24.0,8.5,30.15,WSW,248,0.0,2.0,51,0.00,,,0.00,Weather View 32 v70,2013-02-19 08:07:00,
2013-02-19 03:12:00,24.0,8.9,30.15,SW,225,0.0,0.0,52,0.00,,,0.00,Weather View 32 v70,2013-02-19 08:12:00,
2013-02-19 03:17:00,24.0,6.2,30.15,SW,225,0.0,0.0,46,0.00,,,0.00,Weather View 32 v70,2013-02-19 08:17:00,
2013-02-19 03:22:00,23.0,5.8,30.15,West,270,0.0,0.0,47,0.00,,,0.00,Weather View 32 v70,2013-02-19 08:22:00,
2013-02-19 03:27:00,23.0,8.0,30.15,SW,225,0.0,0.0,52,0.00,,,0.00,Weather View 32 v70,2013-02-19 08:27:00,
2013-02-19 03:32:00,23.0,6.2,30.15,West,270,0.0,0.0,48,0.00,,,0.00,Weather View 32 v70,2013-02-19 08:32:00,
2013-02-19 03:37:00,22.0,7.9,30.15,SW,225,0.0,0.0,54,0.00,,,0.00,Weather View 32 v70,2013-02-19 08:37:00,
2013-02-19 03:42:00,22.0,8.7,30.14,NW,315,0.0,0.0,56,0.00,,,0.00,Weather View 32 v70,2013-02-19 08:42:00,
2013-02-19 03:47:00,22.0,9.5,30.14,NW,315,0.0,0.0,58,0.00,,,0.00,Weather View 32 v70,2013-02-19 08:47:00,
2013-02-19 03:52:00,22.0,7.5,30.13,East,90,0.0,0.0,53,0.00,,,0.00,Weather View 32 v70,2013-02-19 08:52:00,
2013-02-19 03:57:00,21.0,7.0,30.13,SE,135,0.0,0.0,54,0.00,,,0.00,Weather View 32 v70,2013-02-19 08:57:00,
2013-02-19 04:02:00,21.0,7.4,30.13,SSW,202,0.0,0.0,55,0.00,,,0.00,Weather View 32 v70,2013-02-19 09:02:00,
2013-02-19 04:07:00,21.0,10.0,30.14,SSW,202,0.0,0.0,62,0.00,,,0.00,Weather View 32 v70,2013-02-19 09:07:00,
2013-02-19 04:12:00,21.0,9.7,30.14,SW,225,0.0,0.0,61,0.00,,,0.00,Weather View 32 v70,2013-02-19 09:12:00,
2013-02-19 04:17:00,22.0,9.1,30.14,WNW,292,0.0,0.0,57,0.00,,,0.00,Weather View 32 v70,2013-02-19 09:17:00,
2013-02-19 04:22:00,22.0,12.0,30.14,West,270,0.0,0.0,65,0.00,,,0.00,Weather View 32 v70,2013-02-19 09:22:00,
2013-02-19 04:27:00,22.0,11.7,30.14,SSE,158,0.0,0.0,64,0.00,,,0.00,Weather View 32 v70,2013-02-19 09:27:00,
2013-02-19 04:32:00,22.0,11.7,30.14,South,180,0.0,0.0,64,0.00,,,0.00,Weather View 32 v70,2013-02-19 09:32:00,
2013-02-19 04:37:00,22.0,11.7,30.13,SSW,202,0.0,0.0,64,0.00,,,0.00,Weather View 32 v70,2013-02-19 09:37:00,
2013-02-19 04:42:00,23.0,13.3,30.14,SSW,202,0.0,0.0,66,0.00,,,0.00,Weather View 32 v70,2013-02-19 09:42:00,
2013-02-19 04:47:00,23.0,13.0,30.14,SW,225,0.0,0.0,65,0.00,,,0.00,Weather View 32 v70,2013-02-19 09:47:00,
2013-02-19 04:52:00,23.0,13.0,30.14,South,180,0.0,0.0,65,0.00,,,0.00,Weather View 32 v70,2013-02-19 09:52:00,
2013-02-19 04:57:00,23.0,12.6,30.14,SW,225,0.0,0.0,64,0.00,,,0.00,Weather View 32 v70,2013-02-19 09:57:00,
2013-02-19 05:02:00,23.0,12.6,30.15,SW,225,0.0,0.0,64,0.00,,,0.00,Weather View 32 v70,2013-02-19 10:02:00,
2013-02-19 05:07:00,24.0,12.9,30.15,SSW,202,0.0,0.0,62,0.00,,,0.00,Weather View 32 v70,2013-02-19 10:07:00,
2013-02-19 05:12:00,24.0,10.2,30.15,South,180,0.0,0.0,55,0.00,,,0.00,Weather View 32 v70,2013-02-19 10:12:00,
2013-02-19 05:17:00,24.0,13.2,30.15,SSW,202,0.0,0.0,63,0.00,,,0.00,Weather View 32 v70,2013-02-19 10:17:00,
2013-02-19 05:22:00,25.0,13.8,30.15,SW,225,0.0,0.0,62,0.00,,,0.00,Weather View 32 v70,2013-02-19 10:22:00,
2013-02-19 05:27:00,25.0,13.4,30.15,South,180,0.0,0.0,61,0.00,,,0.00,Weather View 32 v70,2013-02-19 10:27:00,
2013-02-19 05:32:00,25.0,12.7,30.15,SSE,158,0.0,0.0,59,0.00,,,0.00,Weather View 32 v70,2013-02-19 10:32:00,
2013-02-19 05:37:00,25.0,12.3,30.14,SSE,158,0.0,0.0,58,0.00,,,0.00,Weather View 32 v70,2013-02-19 10:37:00,
2013-02-19 05:42:00,25.0,10.3,30.14,SSE,158,0.0,0.0,53,0.00,,,0.00,Weather View 32 v70,2013-02-19 10:42:00,
2013-02-19 05:47:00,25.0,11.9,30.14,SSE,158,0.0,0.0,57,0.00,,,0.00,Weather View 32 v70,2013-02-19 10:47:00,
2013-02-19 05:52:00,25.0,10.7,30.14,SSE,158,0.0,0.0,54,0.00,,,0.00,Weather View 32 v70,2013-02-19 10:52:00,
2013-02-19 05:57:00,24.0,13.6,30.14,SSE,158,0.0,0.0,64,0.00,,,0.00,Weather View 32 v70,2013-02-19 10:57:00,
2013-02-19 06:02:00,24.0,12.5,30.14,South,180,0.0,0.0,61,0.00,,,0.00,Weather View 32 v70,2013-02-19 11:02:00,
2013-02-19 06:07:00,24.0,10.6,30.14,SW,225,0.0,0.0,56,0.00,,,0.00,Weather View 32 v70,2013-02-19 11:07:00,
2013-02-19 06:12:00,23.0,12.6,30.14,South,180,0.0,0.0,64,0.00,,,0.00,Weather View 32 v70,2013-02-19 11:12:00,
2013-02-19 06:17:00,23.0,10.0,30.14,South,180,0.0,0.0,57,0.00,,,0.00,Weather View 32 v70,2013-02-19 11:17:00,
2013-02-19 06:22:00,23.0,10.4,30.13,South,180,0.0,0.0,58,0.00,,,0.00,Weather View 32 v70,2013-02-19 11:22:00,
2013-02-19 06:27:00,22.0,12.4,30.13,SE,135,0.0,0.0,66,0.00,,,0.00,Weather View 32 v70,2013-02-19 11:27:00,
2013-02-19 06:32:00,22.0,12.0,30.13,SE,135,0.0,0.0,65,0.00,,,0.00,Weather View 32 v70,2013-02-19 11:32:00,
2013-02-19 06:37:00,22.0,11.0,30.13,SE,135,0.0,0.0,62,0.00,,,0.00,Weather View 32 v70,2013-02-19 11:37:00,
2013-02-19 06:42:00,22.0,11.0,30.13,NE,45,0.0,0.0,62,0.00,,,0.00,Weather View 32 v70,2013-02-19 11:42:00,
2013-02-19 06:47:00,21.0,10.4,30.12,NE,45,0.0,0.0,63,0.00,,,0.00,Weather View 32 v70,2013-02-19 11:47:00,
2013-02-19 06:52:00,21.0,12.1,30.13,South,180,0.0,0.0,68,0.00,,,0.00,Weather View 32 v70,2013-02-19 11:52:00,
2013-02-19 06:57:00,21.0,10.0,30.13,South,180,0.0,0.0,62,0.00,,,0.00,Weather View 32 v70,2013-02-19 11:57:00,
2013-02-19 07:02:00,21.0,10.0,30.13,South,180,0.0,0.0,62,0.00,,,0.00,Weather View 32 v70,2013-02-19 12:02:00,
2013-02-19 07:07:00,21.0,12.8,30.12,South,180,0.0,0.0,70,0.00,,,0.00,Weather View 32 v70,2013-02-19 12:07:00,
2013-02-19 07:12:00,21.0,10.7,30.12,SE,135,0.0,0.0,64,0.00,,,0.00,Weather View 32 v70,2013-02-19 12:12:00,
2013-02-19 07:17:00,22.0,13.4,30.12,SE,135,0.0,0.0,69,0.00,,,0.00,Weather View 32 v70,2013-02-19 12:17:00,
2013-02-19 07:22:00,22.0,13.7,30.11,SE,135,0.0,0.0,70,0.00,,,0.00,Weather View 32 v70,2013-02-19 12:22:00,
2013-02-19 07:28:00,23.0,14.3,30.11,SE,135,0.0,0.0,69,0.00,,,0.00,Weather View 32 v70,2013-02-19 12:28:00,
2013-02-19 07:33:00,24.0,13.6,30.11,SE,135,0.0,0.0,64,0.00,,,0.00,Weather View 32 v70,2013-02-19 12:33:00,
2013-02-19 07:38:00,24.0,15.3,30.11,SE,135,0.0,0.0,69,0.00,,,0.00,Weather View 32 v70,2013-02-19 12:38:00,
2013-02-19 07:43:00,25.0,17.2,30.10,ESE,112,0.0,0.0,72,0.00,,,0.00,Weather View 32 v70,2013-02-19 12:43:00,
2013-02-19 07:48:00,26.0,18.2,30.10,ESE,112,0.0,0.0,72,0.00,,,0.00,Weather View 32 v70,2013-02-19 12:48:00,
2013-02-19 07:53:00,26.0,17.2,30.10,SSW,202,0.0,0.0,69,0.00,,,0.00,Weather View 32 v70,2013-02-19 12:53:00,
2013-02-19 07:58:00,27.0,17.5,30.11,SSW,202,0.0,0.0,67,0.00,,,0.00,Weather View 32 v70,2013-02-19 12:58:00,
2013-02-19 08:03:00,27.0,15.3,30.10,SW,225,0.0,0.0,61,0.00,,,0.00,Weather View 32 v70,2013-02-19 13:03:00,
2013-02-19 08:08:00,28.0,16.3,30.10,ESE,112,0.0,3.0,61,0.00,,,0.00,Weather View 32 v70,2013-02-19 13:08:00,
2013-02-19 08:13:00,29.0,17.2,30.10,South,180,0.0,3.0,61,0.00,,,0.00,Weather View 32 v70,2013-02-19 13:13:00,
2013-02-19 08:18:00,30.0,18.2,30.10,SSE,158,0.0,3.0,61,0.00,,,0.00,Weather View 32 v70,2013-02-19 13:18:00,
2013-02-19 08:23:00,31.0,19.9,30.10,SSW,202,0.0,3.0,63,0.00,,,0.00,Weather View 32 v70,2013-02-19 13:23:00,
2013-02-19 08:28:00,32.0,20.1,30.10,South,180,0.0,4.0,61,0.00,,,0.00,Weather View 32 v70,2013-02-19 13:28:00,
2013-02-19 08:33:00,34.0,21.2,30.10,SSW,202,0.0,5.0,59,0.00,,,0.00,Weather View 32 v70,2013-02-19 13:33:00,
2013-02-19 08:38:00,35.0,20.9,30.10,South,180,0.0,5.0,56,0.00,,,0.00,Weather View 32 v70,2013-02-19 13:38:00,
2013-02-19 08:43:00,36.0,25.0,30.10,SSW,202,4.0,5.0,64,0.00,,,0.00,Weather View 32 v70,2013-02-19 13:43:00,
2013-02-19 08:48:00,36.0,23.8,30.10,SSE,158,0.0,5.0,61,0.00,,,0.00,Weather View 32 v70,2013-02-19 13:48:00,
2013-02-19 08:53:00,37.0,25.2,30.10,SSW,202,0.0,5.0,62,0.00,,,0.00,Weather View 32 v70,2013-02-19 13:53:00,
2013-02-19 08:58:00,38.0,25.7,30.09,SSW,202,3.0,5.0,61,0.00,,,0.00,Weather View 32 v70,2013-02-19 13:58:00,
2013-02-19 09:03:00,39.0,25.9,30.09,SW,225,0.0,5.0,59,0.00,,,0.00,Weather View 32 v70,2013-02-19 14:03:00,
2013-02-19 09:08:00,40.0,23.3,30.09,South,180,0.0,5.0,51,0.00,,,0.00,Weather View 32 v70,2013-02-19 14:08:00,
2013-02-19 09:13:00,41.0,24.7,30.09,SW,225,0.0,5.0,52,0.00,,,0.00,Weather View 32 v70,2013-02-19 14:13:00,
2013-02-19 09:18:00,42.0,26.1,30.09,SW,225,0.0,5.0,53,0.00,,,0.00,Weather View 32 v70,2013-02-19 14:18:00,
2013-02-19 09:23:00,43.0,27.0,30.09,South,180,0.0,5.0,53,0.00,,,0.00,Weather View 32 v70,2013-02-19 14:23:00,
2013-02-19 09:28:00,43.0,24.1,30.09,South,180,1.0,5.0,47,0.00,,,0.00,Weather View 32 v70,2013-02-19 14:28:00,
2013-02-19 09:33:00,43.0,25.6,30.09,South,180,6.0,6.0,50,0.00,,,0.00,Weather View 32 v70,2013-02-19 14:33:00,
2013-02-19 09:38:00,43.0,25.6,30.08,ENE,68,1.0,10.0,50,0.00,,,0.00,Weather View 32 v70,2013-02-19 14:38:00,
2013-02-19 09:43:00,44.0,27.9,30.08,SSW,202,2.0,10.0,53,0.00,,,0.00,Weather View 32 v70,2013-02-19 14:43:00,
2013-02-19 09:48:00,44.0,31.4,30.08,South,180,4.0,10.0,61,0.00,,,0.00,Weather View 32 v70,2013-02-19 14:48:00,
2013-02-19 09:53:00,45.0,31.5,30.08,SW,225,2.0,10.0,59,0.00,,,0.00,Weather View 32 v70,2013-02-19 14:53:00,
2013-02-19 09:58:00,45.0,32.7,30.07,SSW,202,3.0,10.0,62,0.00,,,0.00,Weather View 32 v70,2013-02-19 14:58:00,
2013-02-19 10:03:00,46.0,32.0,30.07,SW,225,4.0,10.0,58,0.00,,,0.00,Weather View 32 v70,2013-02-19 15:03:00,
2013-02-19 10:08:00,46.0,31.2,30.07,SSW,202,4.0,10.0,56,0.00,,,0.00,Weather View 32 v70,2013-02-19 15:08:00,
2013-02-19 10:13:00,46.0,30.7,30.07,WSW,248,2.0,10.0,55,0.00,,,0.00,Weather View 32 v70,2013-02-19 15:13:00,
2013-02-19 10:18:00,47.0,32.1,30.07,SSW,202,7.0,13.0,56,0.00,,,0.00,Weather View 32 v70,2013-02-19 15:18:00,
2013-02-19 10:23:00,47.0,32.1,30.06,SSE,158,4.0,13.0,56,0.00,,,0.00,Weather View 32 v70,2013-02-19 15:23:00,
2013-02-19 10:28:00,47.0,31.2,30.06,SSW,202,4.0,16.0,54,0.00,,,0.00,Weather View 32 v70,2013-02-19 15:28:00,
2013-02-19 10:33:00,47.0,29.8,30.06,SSW,202,5.0,16.0,51,0.00,,,0.00,Weather View 32 v70,2013-02-19 15:33:00,
2013-02-19 10:38:00,47.0,30.3,30.06,WSW,248,3.0,16.0,52,0.00,,,0.00,Weather View 32 v70,2013-02-19 15:38:00,
2013-02-19 10:43:00,47.0,32.1,30.06,SSW,202,5.0,16.0,56,0.00,,,0.00,Weather View 32 v70,2013-02-19 15:43:00,
2013-02-19 10:48:00,47.0,32.1,30.06,ENE,68,0.0,16.0,56,0.00,,,0.00,Weather View 32 v70,2013-02-19 15:48:00,
2013-02-19 10:53:00,47.0,32.1,30.06,SW,225,0.0,16.0,56,0.00,,,0.00,Weather View 32 v70,2013-02-19 15:53:00,
2013-02-19 10:59:00,48.0,33.0,30.06,South,180,3.0,16.0,56,0.00,,,0.00,Weather View 32 v70,2013-02-19 15:59:00,
2013-02-19 11:04:00,48.0,33.0,30.06,South,180,2.0,16.0,56,0.00,,,0.00,Weather View 32 v70,2013-02-19 16:04:00,
2013-02-19 11:09:00,48.0,33.0,30.05,SSW,202,5.0,16.0,56,0.00,,,0.00,Weather View 32 v70,2013-02-19 16:09:00,
2013-02-19 11:14:00,48.0,33.5,30.05,South,180,5.0,16.0,57,0.00,,,0.00,Weather View 32 v70,2013-02-19 16:14:00,
2013-02-19 11:19:00,48.0,33.0,30.05,SSW,202,2.0,16.0,56,0.00,,,0.00,Weather View 32 v70,2013-02-19 16:19:00,
2013-02-19 11:24:00,48.0,33.5,30.05,South,180,2.0,16.0,57,0.00,,,0.00,Weather View 32 v70,2013-02-19 16:24:00,
2013-02-19 11:29:00,48.0,31.7,30.04,WSW,248,4.0,14.0,53,0.00,,,0.00,Weather View 32 v70,2013-02-19 16:29:00,
2013-02-19 11:34:00,48.0,32.1,30.04,South,180,2.0,12.0,54,0.00,,,0.00,Weather View 32 v70,2013-02-19 16:34:00,
2013-02-19 11:39:00,49.0,36.1,30.03,SW,225,4.0,12.0,61,0.00,,,0.00,Weather View 32 v70,2013-02-19 16:39:00,
2013-02-19 11:44:00,49.0,21.8,30.03,South,180,2.0,12.0,34,0.00,,,0.00,Weather View 32 v70,2013-02-19 16:44:00,
2013-02-19 11:49:00,49.0,26.3,30.02,SSE,158,7.0,13.0,41,0.00,,,0.00,Weather View 32 v70,2013-02-19 16:49:00,
2013-02-19 11:54:00,49.0,25.1,30.01,SSW,202,12.0,13.0,39,0.00,,,0.00,Weather View 32 v70,2013-02-19 16:54:00,
2013-02-19 11:59:00,49.0,25.1,30.01,WSW,248,4.0,13.0,39,0.00,,,0.00,Weather View 32 v70,2013-02-19 16:59:00,
2013-02-19 12:04:00,49.0,25.7,30.01,SW,225,5.0,13.0,40,0.00,,,0.00,Weather View 32 v70,2013-02-19 17:04:00,
2013-02-19 12:09:00,49.0,23.8,30.01,SSW,202,6.0,13.0,37,0.00,,,0.00,Weather View 32 v70,2013-02-19 17:09:00,
2013-02-19 12:14:00,49.0,33.0,30.01,ESE,112,3.0,13.0,54,0.00,,,0.00,Weather View 32 v70,2013-02-19 17:14:00,
2013-02-19 12:19:00,49.0,33.0,30.00,SSW,202,6.0,13.0,54,0.00,,,0.00,Weather View 32 v70,2013-02-19 17:19:00,
2013-02-19 12:24:00,49.0,35.7,30.00,SW,225,5.0,14.0,60,0.00,,,0.00,Weather View 32 v70,2013-02-19 17:24:00,
2013-02-19 12:29:00,49.0,33.0,30.00,SW,225,5.0,14.0,54,0.00,,,0.00,Weather View 32 v70,2013-02-19 17:29:00,
2013-02-19 12:34:00,49.0,33.0,29.99,SW,225,2.0,14.0,54,0.00,,,0.00,Weather View 32 v70,2013-02-19 17:34:00,
2013-02-19 12:39:00,49.0,35.3,29.99,SW,225,7.0,14.0,59,0.00,,,0.00,Weather View 32 v70,2013-02-19 17:39:00,
2013-02-19 12:44:00,49.0,34.8,29.98,SE,135,5.0,14.0,58,0.00,,,0.00,Weather View 32 v70,2013-02-19 17:44:00,
2013-02-19 12:49:00,49.0,33.0,29.98,SSW,202,13.0,17.0,54,0.00,,,0.00,Weather View 32 v70,2013-02-19 17:49:00,
2013-02-19 12:54:00,49.0,34.4,29.98,SSW,202,13.0,18.0,57,0.00,,,0.00,Weather View 32 v70,2013-02-19 17:54:00,
2013-02-19 12:59:00,49.0,32.1,29.97,SSW,202,7.0,18.0,52,0.00,,,0.00,Weather View 32 v70,2013-02-19 17:59:00,
2013-02-19 13:04:00,49.0,33.0,29.97,South,180,7.0,18.0,54,0.00,,,0.00,Weather View 32 v70,2013-02-19 18:04:00,
2013-02-19 13:09:00,49.0,35.3,29.96,SW,225,8.0,18.0,59,0.00,,,0.00,Weather View 32 v70,2013-02-19 18:09:00,
2013-02-19 13:14:00,48.0,32.1,29.96,SSW,202,4.0,18.0,54,0.00,,,0.00,Weather View 32 v70,2013-02-19 18:14:00,
2013-02-19 13:19:00,48.0,34.3,29.96,South,180,5.0,18.0,59,0.00,,,0.00,Weather View 32 v70,2013-02-19 18:19:00,
2013-02-19 13:24:00,48.0,34.8,29.97,SSW,202,3.0,18.0,60,0.00,,,0.00,Weather View 32 v70,2013-02-19 18:24:00,
2013-02-19 13:29:00,48.0,32.1,29.96,SE,135,4.0,18.0,54,0.00,,,0.00,Weather View 32 v70,2013-02-19 18:29:00,
2013-02-19 13:34:00,48.0,35.6,29.96,SSW,202,16.0,18.0,62,0.00,,,0.00,Weather View 32 v70,2013-02-19 18:34:00,
2013-02-19 13:40:00,48.0,32.6,29.96,SSW,202,2.0,18.0,55,0.00,,,0.00,Weather View 32 v70,2013-02-19 18:40:00,
2013-02-19 13:45:00,48.0,32.6,29.96,SSW,202,9.0,18.0,55,0.00,,,0.00,Weather View 32 v70,2013-02-19 18:45:00,
2013-02-19 13:50:00,48.0,32.6,29.95,ESE,112,2.0,18.0,55,0.00,,,0.00,Weather View 32 v70,2013-02-19 18:50:00,
2013-02-19 13:55:00,48.0,33.0,29.95,SSW,202,3.0,17.0,56,0.00,,,0.00,Weather View 32 v70,2013-02-19 18:55:00,
2013-02-19 14:00:00,48.0,35.2,29.95,SE,135,3.0,16.0,61,0.00,,,0.00,Weather View 32 v70,2013-02-19 19:00:00,
2013-02-19 14:05:00,48.0,35.2,29.94,SE,135,6.0,16.0,61,0.00,,,0.00,Weather View 32 v70,2013-02-19 19:05:00,
2013-02-19 14:10:00,48.0,35.2,29.94,SSW,202,9.0,16.0,61,0.00,,,0.00,Weather View 32 v70,2013-02-19 19:10:00,
2013-02-19 14:15:00,48.0,35.2,29.94,South,180,5.0,16.0,61,0.00,,,0.00,Weather View 32 v70,2013-02-19 19:15:00,
2013-02-19 14:20:00,48.0,35.6,29.93,SSE,158,5.0,16.0,62,0.00,,,0.00,Weather View 32 v70,2013-02-19 19:20:00,
2013-02-19 14:25:00,49.0,34.4,29.93,SW,225,3.0,16.0,57,0.00,,,0.00,Weather View 32 v70,2013-02-19 19:25:00,
2013-02-19 14:30:00,49.0,34.4,29.93,SSE,158,0.0,16.0,57,0.00,,,0.00,Weather View 32 v70,2013-02-19 19:30:00,
2013-02-19 14:35:00,49.0,34.8,29.93,SSW,202,9.0,16.0,58,0.00,,,0.00,Weather View 32 v70,2013-02-19 19:35:00,
2013-02-19 14:40:00,49.0,34.8,29.93,WSW,248,1.0,15.0,58,0.00,,,0.00,Weather View 32 v70,2013-02-19 19:40:00,
2013-02-19 14:45:00,48.0,34.3,29.92,SSW,202,3.0,15.0,59,0.00,,,0.00,Weather View 32 v70,2013-02-19 19:45:00,
2013-02-19 14:50:00,48.0,35.2,29.91,SSW,202,2.0,15.0,61,0.00,,,0.00,Weather View 32 v70,2013-02-19 19:50:00,
2013-02-19 14:55:00,48.0,35.6,29.91,SSW,202,4.0,14.0,62,0.00,,,0.00,Weather View 32 v70,2013-02-19 19:55:00,
2013-02-19 15:00:00,48.0,35.6,29.91,SSW,202,7.0,14.0,62,0.00,,,0.00,Weather View 32 v70,2013-02-19 20:00:00,
2013-02-19 15:05:00,48.0,36.8,29.91,West,270,0.0,14.0,65,0.00,,,0.00,Weather View 32 v70,2013-02-19 20:05:00,
2013-02-19 15:10:00,48.0,36.4,29.90,West,270,0.0,14.0,64,0.00,,,0.00,Weather View 32 v70,2013-02-19 20:10:00,
2013-02-19 15:15:00,48.0,36.8,29.89,SE,135,2.0,14.0,65,0.00,,,0.00,Weather View 32 v70,2013-02-19 20:15:00,
2013-02-19 15:20:00,48.0,36.8,29.89,SSE,158,0.0,13.0,65,0.00,,,0.00,Weather View 32 v70,2013-02-19 20:20:00,
2013-02-19 15:25:00,48.0,36.4,29.89,ESE,112,0.0,13.0,64,0.00,,,0.00,Weather View 32 v70,2013-02-19 20:25:00,
2013-02-19 15:30:00,48.0,36.4,29.88,NE,45,0.0,13.0,64,0.00,,,0.00,Weather View 32 v70,2013-02-19 20:30:00,
2013-02-19 15:35:00,48.0,36.8,29.88,SE,135,5.0,13.0,65,0.00,,,0.00,Weather View 32 v70,2013-02-19 20:35:00,
2013-02-19 15:40:00,48.0,36.8,29.88,SSW,202,0.0,13.0,65,0.00,,,0.00,Weather View 32 v70,2013-02-19 20:40:00,
2013-02-19 15:45:00,48.0,37.5,29.87,WSW,248,0.0,13.0,67,0.00,,,0.00,Weather View 32 v70,2013-02-19 20:45:00,
2013-02-19 15:50:00,48.0,37.5,29.87,SE,135,4.0,13.0,67,0.00,,,0.00,Weather View 32 v70,2013-02-19 20:50:00,
2013-02-19 15:55:00,48.0,37.2,29.87,East,90,0.0,10.0,66,0.00,,,0.00,Weather View 32 v70,2013-02-19 20:55:00,
2013-02-19 16:00:00,47.0,39.1,29.87,East,90,0.0,10.0,74,0.00,,,0.00,Weather View 32 v70,2013-02-19 21:00:00,
2013-02-19 16:05:00,47.0,37.0,29.87,South,180,1.0,9.0,68,0.00,,,0.00,Weather View 32 v70,2013-02-19 21:05:00,
2013-02-19 16:10:00,47.0,38.8,29.87,SSW,202,4.0,7.0,73,0.00,,,0.00,Weather View 32 v70,2013-02-19 21:10:00,
2013-02-19 16:15:00,47.0,40.5,29.86,SSE,158,0.0,6.0,78,0.00,,,0.00,Weather View 32 v70,2013-02-19 21:15:00,
2013-02-19 16:20:00,47.0,40.8,29.86,SSE,158,4.0,6.0,79,0.00,,,0.00,Weather View 32 v70,2013-02-19 21:20:00,
2013-02-19 16:25:00,47.0,40.8,29.86,SSE,158,0.0,6.0,79,0.00,,,0.00,Weather View 32 v70,2013-02-19 21:25:00,
2013-02-19 16:31:00,46.0,40.2,29.86,SSW,202,3.0,6.0,80,0.00,,,0.00,Weather View 32 v70,2013-02-19 21:31:00,
2013-02-19 16:36:00,46.0,40.8,29.85,ESE,112,6.0,7.0,82,0.00,,,0.00,Weather View 32 v70,2013-02-19 21:36:00,
2013-02-19 16:41:00,46.0,41.1,29.85,SSW,202,0.0,9.0,83,0.00,,,0.00,Weather View 32 v70,2013-02-19 21:41:00,
2013-02-19 16:46:00,46.0,38.8,29.84,South,180,2.0,9.0,76,0.00,,,0.00,Weather View 32 v70,2013-02-19 21:46:00,
2013-02-19 16:51:00,46.0,39.2,29.84,SE,135,2.0,9.0,77,0.01,,,0.01,Weather View 32 v70,2013-02-19 21:51:00,
2013-02-19 16:56:00,46.0,39.5,29.83,SSE,158,3.0,9.0,78,0.01,,,0.01,Weather View 32 v70,2013-02-19 21:56:00,
2013-02-19 17:01:00,45.0,38.2,29.83,NE,45,0.0,9.0,77,0.01,,,0.01,Weather View 32 v70,2013-02-19 22:01:00,
2013-02-19 17:06:00,45.0,38.5,29.82,SE,135,0.0,9.0,78,0.01,,,0.01,Weather View 32 v70,2013-02-19 22:06:00,
2013-02-19 17:11:00,45.0,38.9,29.82,SSE,158,0.0,9.0,79,0.01,,,0.01,Weather View 32 v70,2013-02-19 22:11:00,
2013-02-19 17:16:00,45.0,39.2,29.82,SSW,202,0.0,9.0,80,0.01,,,0.01,Weather View 32 v70,2013-02-19 22:16:00,
2013-02-19 17:21:00,45.0,39.5,29.82,NE,45,0.0,9.0,81,0.01,,,0.01,Weather View 32 v70,2013-02-19 22:21:00,
2013-02-19 17:26:00,45.0,39.5,29.82,SW,225,0.0,9.0,81,0.01,,,0.01,Weather View 32 v70,2013-02-19 22:26:00,
2013-02-19 17:31:00,44.0,38.5,29.81,ESE,112,0.0,9.0,81,0.02,,,0.02,Weather View 32 v70,2013-02-19 22:31:00,
2013-02-19 17:36:00,44.0,38.9,29.80,East,90,0.0,9.0,82,0.02,,,0.02,Weather View 32 v70,2013-02-19 22:36:00,
2013-02-19 17:41:00,44.0,38.9,29.80,East,90,0.0,9.0,82,0.02,,,0.02,Weather View 32 v70,2013-02-19 22:41:00,
2013-02-19 17:46:00,44.0,39.2,29.79,ESE,112,0.0,9.0,83,0.02,,,0.02,Weather View 32 v70,2013-02-19 22:46:00,
2013-02-19 17:51:00,44.0,39.2,29.79,SE,135,0.0,7.0,83,0.01,,,0.02,Weather View 32 v70,2013-02-19 22:51:00,
2013-02-19 17:56:00,44.0,39.5,29.78,East,90,0.0,7.0,84,0.01,,,0.02,Weather View 32 v70,2013-02-19 22:56:00,
2013-02-19 18:01:00,44.0,39.5,29.78,ESE,112,0.0,7.0,84,0.01,,,0.02,Weather View 32 v70,2013-02-19 23:01:00,
2013-02-19 18:06:00,44.0,39.8,29.77,ESE,112,0.0,7.0,85,0.01,,,0.02,Weather View 32 v70,2013-02-19 23:06:00,
2013-02-19 18:11:00,44.0,39.8,29.77,ENE,68,0.0,7.0,85,0.01,,,0.02,Weather View 32 v70,2013-02-19 23:11:00,
2013-02-19 18:16:00,44.0,39.8,29.77,SSE,158,2.0,7.0,85,0.01,,,0.02,Weather View 32 v70,2013-02-19 23:16:00,
2013-02-19 18:21:00,44.0,40.1,29.76,SE,135,4.0,4.0,86,0.02,,,0.03,Weather View 32 v70,2013-02-19 23:21:00,
2013-02-19 18:26:00,44.0,40.1,29.76,ESE,112,3.0,6.0,86,0.02,,,0.03,Weather View 32 v70,2013-02-19 23:26:00,
2013-02-19 18:31:00,44.0,40.1,29.76,ESE,112,0.0,6.0,86,0.01,,,0.03,Weather View 32 v70,2013-02-19 23:31:00,
2013-02-19 18:36:00,44.0,40.4,29.75,SE,135,5.0,6.0,87,0.01,,,0.03,Weather View 32 v70,2013-02-19 23:36:00,
2013-02-19 18:41:00,44.0,40.4,29.75,ESE,112,6.0,7.0,87,0.02,,,0.04,Weather View 32 v70,2013-02-19 23:41:00,
2013-02-19 18:46:00,44.0,40.7,29.76,SW,225,3.0,7.0,88,0.03,,,0.05,Weather View 32 v70,2013-02-19 23:46:00,
2013-02-19 18:51:00,44.0,40.7,29.76,WNW,292,1.0,7.0,88,0.03,,,0.05,Weather View 32 v70,2013-02-19 23:51:00,
2013-02-19 18:56:00,44.0,43.5,29.76,West,270,0.0,7.0,98,0.06,,,0.08,Weather View 32 v70,2013-02-19 23:56:00,
2013-02-19 19:02:00,44.0,43.2,29.75,ESE,112,0.0,7.0,97,0.09,,,0.11,Weather View 32 v70,2013-02-20 00:02:00,
2013-02-19 19:07:00,43.0,42.2,29.74,West,270,0.0,7.0,97,0.11,,,0.13,Weather View 32 v70,2013-02-20 00:07:00,
2013-02-19 19:12:00,44.0,43.5,29.74,SW,225,0.0,7.0,98,0.12,,,0.14,Weather View 32 v70,2013-02-20 00:12:00,
2013-02-19 19:17:00,44.0,43.5,29.74,NW,315,0.0,7.0,98,0.14,,,0.16,Weather View 32 v70,2013-02-20 00:17:00,
2013-02-19 19:22:00,44.0,43.7,29.75,North,0,0.0,7.0,99,0.17,,,0.21,Weather View 32 v70,2013-02-20 00:22:00,
2013-02-19 19:27:00,44.0,43.5,29.75,South,180,0.0,7.0,98,0.19,,,0.23,Weather View 32 v70,2013-02-20 00:27:00,
2013-02-19 19:32:00,44.0,43.5,29.74,ESE,112,1.0,7.0,98,0.21,,,0.24,Weather View 32 v70,2013-02-20 00:32:00,
2013-02-19 19:37:00,44.0,43.5,29.73,West,270,0.0,7.0,98,0.23,,,0.26,Weather View 32 v70,2013-02-20 00:37:00,
2013-02-19 19:42:00,44.0,43.7,29.72,SW,225,2.0,13.0,99,0.23,,,0.27,Weather View 32 v70,2013-02-20 00:42:00,
2013-02-19 19:47:00,45.0,44.7,29.72,ESE,112,2.0,13.0,99,0.23,,,0.28,Weather View 32 v70,2013-02-20 00:47:00,
2013-02-19 19:52:00,45.0,44.5,29.72,ENE,68,2.0,13.0,98,0.24,,,0.30,Weather View 32 v70,2013-02-20 00:52:00,
2013-02-19 19:57:00,45.0,44.5,29.71,East,90,3.0,13.0,98,0.23,,,0.31,Weather View 32 v70,2013-02-20 00:57:00,
2013-02-19 20:02:00,45.0,44.5,29.70,East,90,0.0,13.0,98,0.21,,,0.32,Weather View 32 v70,2013-02-20 01:02:00,
2013-02-19 20:07:00,45.0,44.5,29.69,ESE,112,3.0,13.0,98,0.20,,,0.34,Weather View 32 v70,2013-02-20 01:07:00,
2013-02-19 20:12:00,45.0,44.5,29.68,SE,135,3.0,13.0,98,0.20,,,0.35,Weather View 32 v70,2013-02-20 01:12:00,
2013-02-19 20:17:00,45.0,44.5,29.68,ESE,112,3.0,13.0,98,0.20,,,0.36,Weather View 32 v70,2013-02-20 01:17:00,
2013-02-19 20:22:00,45.0,44.5,29.67,East,90,6.0,13.0,98,0.17,,,0.37,Weather View 32 v70,2013-02-20 01:22:00,
2013-02-19 20:27:00,45.0,44.5,29.66,ESE,112,0.0,13.0,98,0.16,,,0.38,Weather View 32 v70,2013-02-20 01:27:00,
2013-02-19 20:32:00,45.0,44.5,29.65,ESE,112,0.0,13.0,98,0.14,,,0.39,Weather View 32 v70,2013-02-20 01:32:00,
2013-02-19 20:37:00,45.0,44.7,29.65,SE,135,0.0,13.0,99,0.13,,,0.39,Weather View 32 v70,2013-02-20 01:37:00,
2013-02-19 20:42:00,45.0,44.7,29.64,ESE,112,0.0,7.0,99,0.12,,,0.39,Weather View 32 v70,2013-02-20 01:42:00,
2013-02-19 20:47:00,44.0,43.7,29.63,ESE,112,3.0,7.0,99,0.11,,,0.40,Weather View 32 v70,2013-02-20 01:47:00,
2013-02-19 20:52:00,44.0,43.7,29.63,SE,135,3.0,7.0,99,0.12,,,0.41,Weather View 32 v70,2013-02-20 01:52:00,
2013-02-19 20:57:00,44.0,43.7,29.63,ESE,112,0.0,7.0,99,0.11,,,0.42,Weather View 32 v70,2013-02-20 01:57:00,
2013-02-19 21:02:00,45.0,44.7,29.63,WNW,292,0.0,7.0,99,0.10,,,0.42,Weather View 32 v70,2013-02-20 02:02:00,
2013-02-19 21:07:00,45.0,44.7,29.63,SE,135,0.0,6.0,99,0.09,,,0.43,Weather View 32 v70,2013-02-20 02:07:00,
2013-02-19 21:12:00,45.0,45.0,29.64,SSW,202,6.0,8.0,100,0.09,,,0.44,Weather View 32 v70,2013-02-20 02:12:00,
2013-02-19 21:17:00,45.0,44.5,29.63,East,90,1.0,8.0,98,0.10,,,0.46,Weather View 32 v70,2013-02-20 02:17:00,
2013-02-19 21:22:00,45.0,43.9,29.63,SSW,202,4.0,8.0,96,0.11,,,0.48,Weather View 32 v70,2013-02-20 02:22:00,
2013-02-19 21:27:00,45.0,44.7,29.63,SSW,202,0.0,8.0,99,0.11,,,0.49,Weather View 32 v70,2013-02-20 02:27:00,
2013-02-19 21:33:00,45.0,45.0,29.62,SW,225,2.0,8.0,100,0.11,,,0.50,Weather View 32 v70,2013-02-20 02:33:00,
2013-02-19 21:38:00,46.0,46.0,29.62,South,180,1.0,8.0,100,0.11,,,0.50,Weather View 32 v70,2013-02-20 02:38:00,
2013-02-19 21:43:00,45.0,45.0,29.62,South,180,0.0,8.0,100,0.11,,,0.50,Weather View 32 v70,2013-02-20 02:43:00,
2013-02-19 21:48:00,46.0,46.0,29.63,South,180,0.0,8.0,100,0.11,,,0.51,Weather View 32 v70,2013-02-20 02:48:00,
2013-02-19 21:53:00,46.0,45.5,29.64,South,180,4.0,9.0,98,0.10,,,0.51,Weather View 32 v70,2013-02-20 02:53:00,
2013-02-19 21:58:00,46.0,44.6,29.63,SW,225,4.0,9.0,95,0.09,,,0.51,Weather View 32 v70,2013-02-20 02:58:00,
2013-02-19 22:03:00,46.0,44.6,29.62,South,180,3.0,9.0,95,0.09,,,0.51,Weather View 32 v70,2013-02-20 03:03:00,
2013-02-19 22:08:00,46.0,44.6,29.62,SSW,202,6.0,9.0,95,0.09,,,0.52,Weather View 32 v70,2013-02-20 03:08:00,
2013-02-19 22:13:00,46.0,44.4,29.62,SSW,202,3.0,9.0,94,0.08,,,0.52,Weather View 32 v70,2013-02-20 03:13:00,
2013-02-19 22:18:00,46.0,44.9,29.62,SW,225,0.0,9.0,96,0.07,,,0.53,Weather View 32 v70,2013-02-20 03:18:00,
2013-02-19 22:23:00,46.0,44.9,29.60,South,180,0.0,9.0,96,0.05,,,0.53,Weather View 32 v70,2013-02-20 03:23:00,
2013-02-19 22:28:00,46.0,44.6,29.59,SSE,158,0.0,9.0,95,0.04,,,0.53,Weather View 32 v70,2013-02-20 03:28:00,
2013-02-19 22:33:00,45.0,42.5,29.59,SSE,158,0.0,9.0,91,0.03,,,0.53,Weather View 32 v70,2013-02-20 03:33:00,
2013-02-19 22:38:00,45.0,42.5,29.59,SE,135,0.0,9.0,91,0.03,,,0.53,Weather View 32 v70,2013-02-20 03:38:00,
2013-02-19 22:43:00,45.0,42.5,29.59,SW,225,0.0,9.0,91,0.03,,,0.53,Weather View 32 v70,2013-02-20 03:43:00,
2013-02-19 22:48:00,44.0,44.0,29.59,SE,135,0.0,9.0,100,0.03,,,0.54,Weather View 32 v70,2013-02-20 03:48:00,
2013-02-19 22:53:00,44.0,44.0,29.60,SSW,202,0.0,8.0,100,0.03,,,0.54,Weather View 32 v70,2013-02-20 03:53:00,
2013-02-19 22:58:00,43.0,40.5,29.60,South,180,0.0,7.0,91,0.03,,,0.54,Weather View 32 v70,2013-02-20 03:58:00,
2013-02-19 23:03:00,43.0,40.5,29.60,SSW,202,0.0,7.0,91,0.03,,,0.54,Weather View 32 v70,2013-02-20 04:03:00,
2013-02-19 23:08:00,43.0,40.8,29.61,SW,225,0.0,7.0,92,0.02,,,0.54,Weather View 32 v70,2013-02-20 04:08:00,
2013-02-19 23:13:00,43.0,40.8,29.61,SSW,202,0.0,4.0,92,0.02,,,0.54,Weather View 32 v70,2013-02-20 04:13:00,
2013-02-19 23:18:00,43.0,40.8,29.60,SW,225,0.0,2.0,92,0.01,,,0.54,Weather View 32 v70,2013-02-20 04:18:00,
2013-02-19 23:23:00,43.0,40.8,29.59,SSW,202,0.0,2.0,92,0.01,,,0.54,Weather View 32 v70,2013-02-20 04:23:00,
2013-02-19 23:28:00,43.0,40.8,29.59,South,180,0.0,2.0,92,0.01,,,0.54,Weather View 32 v70,2013-02-20 04:28:00,
2013-02-19 23:33:00,43.0,40.8,29.60,SSW,202,0.0,3.0,92,0.01,,,0.54,Weather View 32 v70,2013-02-20 04:33:00,
2013-02-19 23:38:00,43.0,40.8,29.59,SSW,202,0.0,3.0,92,0.01,,,0.54,Weather View 32 v70,2013-02-20 04:38:00,
2013-02-19 23:43:00,44.0,41.8,29.60,SW,225,0.0,3.0,92,0.01,,,0.54,Weather View 32 v70,2013-02-20 04:43:00,
2013-02-19 23:48:00,44.0,41.8,29.59,South,180,0.0,3.0,92,0.00,,,0.54,Weather View 32 v70,2013-02-20 04:48:00,
2013-02-19 23:53:00,44.0,41.8,29.59,WSW,248,0.0,9.0,92,0.00,,,0.54,Weather View 32 v70,2013-02-20 04:53:00,
2013-02-19 23:58:00,44.0,41.8,29.59,WSW,248,3.0,9.0,92,0.00,,,0.54,Weather View 32 v70,2013-02-20 04:58:00,